Historyczne dane pomiarowe

Dodano dane terminowe – wersja testowa.

Dane z okresu 1951-2019

Wersja bazy: 1.34 [2019-03-16, lista zmian], aktualizacja planowana na 2019-04-15

Dane meteo z obszaru Polski uzyskane na podstawie danych udostępnionych przez Instytut Meteorologii i Gospodarki Wodnej – Państwowy Instytut Badawczy.

 

Wybierz Datę:    

       

TemperaturaWilgotnośćWiatrCiśnienieOpadyŚniegCzas trwania zjawisk
 Stacja t tx tn tng RH VA  wxwx mslp ppp RRR   cm mm wxwxwxwxwxwxwx
2020-02-29 2.7 6.2 -1.2 -3.5 71.8 5.2- 4.0--1008.8 972.5 0.9 0.0 0.0x- 2.9-------
2020-02-28 0.7 4.2 -1.4 -2.5 87.1 5.6- 2.8--1010.2 973.7 0.3 0.3 0.0x- 2.2-------
2020-02-27 1.2 4.5 -0.1 -2.3 86.8 5.7- 2.3--1003.0 966.8 0.2 0.2 0.0x- 3.3-------
2020-02-26 3.9 7.5 1.3 0.2 83.9 6.8- 2.1-- 995.9 960.3 0.0 0.0 0.0x- 1.1-------
2020-02-25 6.5 9.6 2.2 1.2 89.5 8.7- 3.1--1001.6 966.1 1.6 1.4 0.2x- 0.0-------
2020-02-24 3.5 9.3 1.5 0.0 78.5 6.2- 4.3--1014.4 978.0 2.0 0.0 2.0x- 0.7-------
2020-02-23 6.1 9.1 4.1 3.5 85.3 8.0- 3.5--1010.6 974.7 13.5 6.0 7.5x- 0.0-------
2020-02-22 4.2 8.9 -1.0 -3.7 66.5 5.3- 3.9--1022.3 985.7 1.8 0.0 1.8x- 3.7-------
2020-02-21 2.6 5.0 0.1 -0.7 81.1 6.0- 4.0--1019.8 983.1 1.4 1.4 0.0x- 0.9-------
2020-02-20 2.5 5.3 1.1 0.6 82.5 6.0- 2.3--1021.4 984.7 0.0 0.0 0.0x- 1.4-------
2020-02-19 3.7 8.7 0.2 -1.9 77.3 6.0- 2.6--1017.5 981.0 0.7 0.7 0.0x- 6.5-------
2020-02-18 5.9 9.4 2.7 0.9 77.8 7.2- 2.6--1020.2 983.9 0.7 0.7 0.0x- 3.1-------
2020-02-17 9.4 13.0 7.7 6.1 59.1 6.9- 3.1--1015.9 980.3 0.0 0.0 0.0x- 3.0-------
2020-02-16 7.5 11.6 2.2 0.6 58.1 5.9- 4.8--1019.8 983.7 0.0 0.0 0.0x- 2.9-------
2020-02-15 3.4 7.1 1.1 0.2 76.1 5.9- 2.1--1027.2 990.3 0.0 0.0 0.0x- 6.9-------
2020-02-14 3.3 5.0 0.6 -0.4 83.3 6.4- 2.8--1014.7 978.4 0.0 0.0 0.0x- 0.0-------
2020-02-13 1.6 6.0 -1.2 -2.6 70.4 4.8- 3.1--1015.8 979.1 0.5 0.0 0.5x- 7.5-------
2020-02-12 1.6 4.9 -0.1 -1.3 76.3 5.2- 3.3--1009.5 973.1 0.5 0.5 0.0x- 1.8-------
2020-02-11 3.0 4.8 1.0 -0.1 72.9 5.5- 4.0-- 998.6 962.7 0.5 0.5 0.0x- 1.2-------
2020-02-10 5.0 8.8 2.3 1.2 75.4 6.6- 4.5-- 998.1 962.5 8.6 7.1 1.5x- 0.6-------
2020-02-09 3.0 7.2 -0.1 -1.6 64.8 4.9- 4.0--1021.2 984.5 1.5 0.0 1.5x- 7.5-------
2020-02-08 0.0 6.1 -5.4 -7.3 67.6 4.2- 2.4--1029.2 991.9 0.0 0.0 0.0x- 8.9-------
2020-02-07 1.1 3.2 -0.9 -2.3 76.9 5.2- 3.1--1028.6 991.4 0.6 0.6 0.0x- 4.6-------
2020-02-06 -0.3 1.7 -3.3 -4.9 92.8 5.6- 2.5--1026.1 988.8 1.7 0.0 1.7x- 0.0-------
2020-02-05 0.3 2.2 -0.1 -0.7 77.1 4.8- 5.0--1020.8 983.8 0.0 0.0 0.0x- 4.4-------
2020-02-04 3.6 5.5 1.8 1.3 93.8 7.5- 3.9--1002.3 966.4 14.0 13.6 0.4x- 0.0-------
2020-02-03 4.7 6.2 3.4 2.3 92.8 7.9- 2.5--1007.5 971.5 3.8 0.0 3.8x- 0.1-------
2020-02-02 6.6 11.1 4.6 2.8 79.0 7.7- 3.1--1006.4 970.7 2.1 0.1 2.0x- 0.2-------
2020-02-01 10.0 13.5 7.2 6.0 78.0 9.5- 3.1--1006.2 971.0 5.7 0.0 5.7x- 4.6-------
2020-01-31 6.2 10.2 1.7 0.3 83.0 7.9- 3.9--1004.6 969.0 1.1 0.9 0.0x- 0.9-------
2020-01-30 2.5 4.6 0.7 0.2 84.8 6.2- 3.0--1010.8 974.4 5.4 4.6 0.8x- 1.8-------
2020-01-29 1.7 4.0 -0.2 -1.2 78.6 5.4- 3.0--1003.3 967.1 0.4 0.4 0.0x- 0.0-------
2020-01-28 1.8 3.9 -1.0 -1.9 87.8 6.1- 3.1--1002.9 966.8 0.3 0.3 0.0x- 0.2-------
2020-01-27 0.3 6.7 -3.2 -3.9 88.1 5.5- 2.4--1016.3 979.5 0.0 0.0 0.0x- 2.8-------
2020-01-26 -2.5 -0.8 -4.1 -6.0 94.9 4.8- 2.0--1021.9 984.5 0.0 0.0 0.0x- 0.0-------
2020-01-25 -2.1 2.9 -5.4 -7.7 85.6 4.4- 1.6--1023.0 985.6 0.0 0.0 0.0x- 7.9-------
2020-01-24 -1.4 3.6 -3.4 -6.3 82.9 4.5- 2.9--1025.1 987.7 0.0 0.0 0.0x- 7.9-------
2020-01-23 1.2 4.0 0.3 -3.5 83.3 5.5- 1.8--1033.5 996.1 0.0 0.0 0.0x- 2.0-------
2020-01-22 -0.5 1.2 -2.6 -3.6 89.1 5.3- 3.4--1030.2 992.8 0.0 0.0 0.0x- 0.2-------
2020-01-21 0.5 4.8 -2.3 -4.9 80.5 5.1- 2.3--1040.61002.9 0.0 0.0 0.0x- 8.0-------
2020-01-20 0.9 2.4 -0.1 0.2 89.5 5.8- 1.8--1045.21007.4 0.0 0.0 0.0x- 0.0-------
2020-01-19 2.1 3.7 1.4 0.9 94.9 6.7- 2.5--1031.9 994.7 0.1 0.1 0.0x- 0.0-------
2020-01-18 2.2 3.2 0.2 -0.7 88.1 6.3- 2.3--1024.4 987.5 1.4 1.0 0.4x- 0.0-------
2020-01-17 0.4 2.7 -2.0 -7.0 92.5 5.8- 2.0--1027.6 990.4 0.0 0.0 0.0x- 5.1-------
2020-01-16 2.5 7.9 -0.4 -2.1 83.0 6.1- 2.3--1030.4 993.3 0.0 0.0 0.0x- 3.7-------
2020-01-15 2.8 7.0 -0.7 -1.3 67.9 5.0- 4.1--1022.9 986.2 0.0 0.0 0.0x- 7.8-------
2020-01-14 0.9 2.7 -0.7 -1.6 84.9 5.5- 3.6--1021.4 984.4 0.0 0.0 0.0x- 5.9-------
2020-01-13 2.7 4.2 1.6 0.9 82.8 6.1- 2.4--1023.6 986.8 0.0 0.0 0.0x- 0.0-------
2020-01-12 2.4 5.6 0.0 -0.9 82.0 5.9- 3.6--1026.3 989.3 0.0 0.0 0.0x- 6.4-------
2020-01-11 3.6 5.6 2.8 2.4 92.6 7.3- 2.9--1027.9 991.1 0.5 0.5 0.0x- 0.1-------
2020-01-10 4.4 6.1 2.9 1.6 77.3 6.5- 3.1--1018.5 982.1 0.0 0.0 0.0x- 0.8-------
2020-01-09 3.9 5.3 2.6 2.4 94.8 7.6- 2.6--1022.5 985.9 1.3 1.1 0.2x- 0.0-------
2020-01-08 2.3 5.3 0.1 0.1 88.6 6.3- 2.8--1027.8 990.8 1.8 0.0 1.8x- 3.8-------
2020-01-07 -0.1 2.7 -2.8 -4.3 80.6 4.9- 1.8--1026.9 989.6 0.0 0.0 0.0x- 6.2-------
2020-01-06 -1.4 0.7 -4.5 -7.6 90.0 5.0- 2.0--1031.5 993.9 0.0 0.0 0.0x- 0.2-------
2020-01-05 -0.3 1.7 -1.7 -4.9 84.4 5.1- 4.6--1029.2 991.8 0.0 0.0 0.0x- 3.8-------
2020-01-04 2.2 4.1 0.4 0.0 89.6 6.4- 3.9--1017.6 980.9 3.3 2.1 1.2x- 0.0-------
2020-01-03 2.2 5.6 -1.5 -5.0 67.4 4.8- 2.6--1022.7 985.8 0.9 0.0 0.9x- 6.9-------
2020-01-02 0.6 7.5 -3.2 -6.0 65.8 4.0- 2.1--1029.8 992.5 0.0 0.0 0.0x- 5.6-------
2020-01-01 1.4 4.2 -0.9 -2.3 84.3 5.7- 3.3--1032.4 995.1 0.0 0.0 0.0x- 0.7-------
76.9 ms

 

Źródłem pochodzenia danych jest Instytut Meteorologii i Gospodarki Wodnej – Państwowy Instytut Badawczy. Dane Instytutu Meteorologii i Gospodarki Wodnej – Państwowego Instytutu Badawczego zostały przetworzone.

Dane źródłowe można odnaleźć na stronie https://dane.imgw.pl